Location: Unspecified
(35.7250°N, 0.0000°E)
Time: 13:28:27
(UTC+00:00)

Explorer 7 - Pass Details

Date: 22 August 2020
Orbit: 485 x 679 km, 50.3° (Epoch: 21 September)

Event Time Altitude Azimuth Distance (km) Brightness Sun altitude
Rises 19:38:58 0° 318° (NW) 2,679 11.7 -12.1°
Reaches altitude 10° 19:41:53 10° 339° (NNW) 1,750 10.1 -12.6°
Maximum altitude 19:44:31 17° 21° (NNE) 1,336 8.8 -13.1°
Enters shadow 19:47:03 10° 63° (ENE) 1,680 8.9 -13.6°
